Simultaneous Nadir Overpasses (SNOs) Predictions

Prediction of SNOs between TERRA and METOP-C Satellite Orbit:

Table of predicted SNOs for the next 14.0 days since TLE Epoch: 9/28/2019
Index Date (TERRA) Time (TERRA) Lat,Lon (TERRA) SZA (TERRA ) Date (METOP-C) Time (METOP-C) Lat,Lon (METOP-C) SZA (METOP-C ) Distance(km) Time Diff (sec)
1 09/29/2019 15:01:08 81.30, 1.70 86.76 09/29/2019 15:00:54 81.31, 1.68 86.76 0.81 14
2 09/29/2019 15:50:34 -81.31, 169.61 93.19 09/29/2019 15:51:34 -81.32, 169.67 93.15 1.07 60
3 10/02/2019 10:35:23 81.30, 68.21 87.88 10/02/2019 10:35:16 81.31, 68.07 87.87 2.28 7
4 10/02/2019 11:24:48 -81.32,-123.86 92.06 10/02/2019 11:25:55 -81.32,-123.90 92.04 0.87 67
5 10/05/2019 05:20:11 -81.30, -33.02 91.03 10/05/2019 05:18:58 -81.30, -33.14 91.08 2.02 73
6 10/05/2019 06:09:37 81.31, 134.70 89.00 10/05/2019 06:09:36 81.31, 134.86 89.02 2.74 1
7 10/05/2019 06:59:03 -81.32, -57.33 90.95 10/05/2019 07:00:17 -81.32, -57.47 90.93 2.53 74
8 10/08/2019 00:54:26 -81.31, 33.49 89.93 10/08/2019 00:53:19 -81.31, 33.67 89.94 3.16 67
9 10/08/2019 01:43:52 81.31,-158.82 90.10 10/08/2019 01:43:58 81.31,-158.74 90.11 1.40 6
10 10/10/2019 20:28:41 -81.31, 99.98 88.84 10/10/2019 20:27:41 -81.31, 100.09 88.85 1.98 60




NCC Satellite Simultaneous Nadir Overpasses (SNOs) Prediction Service
